Вернуться в каталог

COSMOS 1550

АктивенВоенныеPO
NORAD 14965·PAYLOAD·🇷🇺 Russia

Запущен May 11, 1984 с Plesetsk Cosmodrome

Loading…

Ближайшие Пролёты (ближайшие 24 часа)

TLE

СвежийSource: Space-Track

Эпоха: Sep 14, 2026, 02:56 UTC

1 14965U 84043A   26257.12290550  .00000065  00000-0  53881-4 0  9990
2 14965  82.9758 154.7731 0026602 130.0527  34.5121 13.73029838122003

Отслеживайте COSMOS 1550 в реальном времени с AllMySat

Download on the App Store